Oakland, MD

9:48 PM EDT on October 22, 2017 (GMT -0400)
Oakland

Weather History for K2G4 - May, 2014

Change the Weather History Date:

Monday, May 5, 2014

  Actual Average (KMGW) Record (KMGW)
Temperature  
Mean Temperature 42 °F -  
Max Temperature 51 °F 69 °F 89 °F (1949)
Min Temperature 32 °F 47 °F 32 °F (1956)
Degree Days  
Heating Degree Days 24    
Moisture  
Dew Point 25 °F    
Average Humidity 58    
Maximum Humidity 100    
Minimum Humidity 15    
Precipitation  
Precipitation 0.00 in - - ()
Sea Level Pressure  
Sea Level Pressure 29.98 in    
Wind  
Wind Speed 5 mph (ENE)    
Max Wind Speed 10 mph    
Max Gust Speed 20 mph    
Visibility 10 miles    
Events      
Averages and records for this station are not official NWS values.
T = Trace of Precipitation, MM = Missing Value Source: NWS Daily Summary

Daily Weather History Graph

Daily Weather History Graph

Search for Another Location

Airport or City:

Trip Planner

Search our weather history database for the weather conditions in past years. The results will help you decide how hot, cold, wet, or windy it might be!

Date:

Astronomy

May. 05, 2014 Rise Set
Actual Time 6:13 AM EDT 8:15 PM EDT
Civil Twilight 5:44 AM EDT 8:44 PM EDT
Nautical Twilight 5:08 AM EDT 9:20 PM EDT
Astronomical Twilight 4:29 AM EDT 10:00 PM EDT
Moon 11:31 AM EDT (5/5) 12:58 AM EDT (5/5)
Length of Visible Light 15h 00m
Length of Day
14h 01m
Waxing Crescent, 36% of the Moon is Illuminated
May 5
Waxing Crescent
May 6
First Quarter
May 14
Full
May 21
Last Quarter
May 28
New

Hourly Weather History & Observations

Time (EDT) Temp. Windchill Dew Point Humidity Pressure Visibility Wind Dir Wind Speed Gust Speed Precip Events Conditions
12:05 AM 39.2 °F 33.0 °F 28.4 °F 65% 30.00 in 10.0 mi NNW 9.2 mph 16.1 mph N/A   Clear
12:25 AM 37.4 °F 31.4 °F 26.6 °F 65% 30.00 in 10.0 mi NNW 8.1 mph 17.3 mph N/A   Clear
12:45 AM 37.4 °F 31.4 °F 24.8 °F 60% 30.01 in 10.0 mi NW 8.1 mph 17.3 mph N/A   Clear
1:05 AM 37.4 °F 30.8 °F 26.6 °F 65% 30.01 in 10.0 mi NW 9.2 mph - N/A   Clear
1:25 AM 35.6 °F 29.2 °F 23.0 °F 60% 30.01 in 10.0 mi NW 8.1 mph 19.6 mph N/A   Clear
1:45 AM 35.6 °F 28.6 °F 23.0 °F 60% 30.00 in 10.0 mi NW 9.2 mph - N/A   Clear
2:05 AM 35.6 °F 29.9 °F 23.0 °F 60% 29.99 in 10.0 mi NNW 6.9 mph 16.1 mph N/A   Clear
2:25 AM 35.6 °F 30.7 °F 24.8 °F 65% 29.99 in 10.0 mi NNW 5.8 mph - N/A   Clear
2:45 AM 33.8 °F 27.7 °F 24.8 °F 70% 29.99 in 10.0 mi NNW 6.9 mph - N/A   Clear
3:05 AM 33.8 °F 30.8 °F 26.6 °F 75% 29.98 in 10.0 mi NNW 3.5 mph - N/A   Clear
3:25 AM 33.8 °F 28.6 °F 26.6 °F 75% 29.99 in 10.0 mi North 5.8 mph - N/A   Clear
3:45 AM 33.8 °F 27.7 °F 28.4 °F 81% 29.99 in 10.0 mi NNW 6.9 mph - N/A   Clear
4:05 AM 33.8 °F 29.6 °F 28.4 °F 81% 29.98 in 10.0 mi North 4.6 mph - N/A   Clear
4:25 AM 32.0 °F - 28.4 °F 87% 29.99 in 10.0 mi Calm Calm - N/A   Clear
4:45 AM 32.0 °F 28.7 °F 30.2 °F 93% 29.99 in 10.0 mi North 3.5 mph - N/A   Clear
5:05 AM 32.0 °F 27.5 °F 30.2 °F 93% 29.98 in 10.0 mi North 4.6 mph - N/A   Clear
5:25 AM 32.0 °F 27.5 °F 30.2 °F 93% 29.99 in 10.0 mi North 4.6 mph - N/A   Clear
5:45 AM 32.0 °F 27.5 °F 30.2 °F 93% 30.00 in 10.0 mi North 4.6 mph - N/A   Clear
6:05 AM 32.0 °F - 30.2 °F 93% 30.01 in 10.0 mi Calm Calm - N/A   Clear
6:25 AM 32.0 °F - 30.2 °F 93% 30.01 in 10.0 mi Calm Calm - N/A   Clear
6:45 AM 32.0 °F - 32.0 °F 100% 30.02 in 10.0 mi Calm Calm - N/A   Clear
7:05 AM 33.8 °F - 30.2 °F 87% 30.03 in 10.0 mi Calm Calm - N/A   Clear
7:25 AM 33.8 °F - 28.4 °F 81% 30.04 in 10.0 mi Calm Calm - N/A   Clear
7:45 AM 35.6 °F - 28.4 °F 75% 30.05 in 10.0 mi Calm Calm - N/A   Clear
8:05 AM 35.6 °F 30.7 °F 28.4 °F 75% 30.05 in 10.0 mi NE 5.8 mph - N/A   Clear
8:25 AM 37.4 °F - 26.6 °F 65% 30.05 in 10.0 mi Calm Calm - N/A   Clear
8:45 AM 39.2 °F - 26.6 °F 61% 30.04 in 10.0 mi Calm Calm - N/A   Clear
9:05 AM 41.0 °F 39.0 °F 26.6 °F 57% 30.05 in 10.0 mi East 3.5 mph - N/A   Clear
9:25 AM 42.8 °F 39.3 °F 23.0 °F 46% 30.05 in 10.0 mi East 5.8 mph - N/A   Clear
9:45 AM 44.6 °F - 24.8 °F 46% 30.05 in 10.0 mi Calm Calm - N/A   Clear
10:05 AM 46.4 °F - 23.0 °F 40% 30.04 in 10.0 mi Calm Calm - N/A   Clear
10:25 AM 44.6 °F - 21.2 °F 39% 30.04 in 10.0 mi Calm Calm - N/A   Clear
10:45 AM 48.2 °F - 21.2 °F 34% 30.03 in 10.0 mi East 4.6 mph - N/A   Clear
11:05 AM 50.0 °F - 19.4 °F 30% 30.02 in 10.0 mi East 6.9 mph - N/A   Clear
11:45 AM 50.0 °F - 15.8 °F 26% 30.01 in 10.0 mi ESE 6.9 mph - N/A   Clear
12:05 PM 51.8 °F - 10.4 °F 19% 30.01 in 10.0 mi East 5.8 mph - N/A   Clear
12:25 PM 50.0 °F - 6.8 °F 17% 30.01 in 10.0 mi South 3.5 mph - N/A   Unknown
12:45 PM 50.0 °F - 8.6 °F 19% 30.01 in 10.0 mi Calm Calm - N/A   Unknown
1:05 PM 50.0 °F - 8.6 °F 19% 30.00 in 10.0 mi Calm Calm - N/A   Unknown
1:25 PM 51.8 °F - 8.6 °F 18% 29.99 in 10.0 mi South 4.6 mph - N/A   Unknown
1:45 PM 51.8 °F - 8.6 °F 18% 30.00 in 10.0 mi Calm Calm - N/A   Overcast
2:05 PM 50.0 °F - 8.6 °F 19% 29.99 in 10.0 mi Calm Calm - N/A   Mostly Cloudy
2:25 PM 51.8 °F - 8.6 °F 18% 29.98 in 10.0 mi Calm Calm - N/A   Mostly Cloudy
2:45 PM 51.8 °F - 5.0 °F 15% 29.98 in 10.0 mi Calm Calm - N/A   Overcast
3:05 PM 51.8 °F - 10.4 °F 19% 29.98 in 10.0 mi SSW 5.8 mph - N/A   Overcast
3:25 PM 51.8 °F - 8.6 °F 18% 29.97 in 10.0 mi Calm Calm - N/A   Overcast
3:45 PM 50.0 °F - 10.4 °F 20% 29.96 in 10.0 mi Calm Calm - N/A   Overcast
4:05 PM 48.2 °F - 21.2 °F 34% 29.92 in 10.0 mi ESE 3.5 mph - N/A   Overcast
4:25 PM 44.6 °F 43.1 °F 30.2 °F 57% 29.94 in 10.0 mi SSW 3.5 mph - N/A   Overcast
4:45 PM 44.6 °F 43.1 °F 32.0 °F 61% 29.95 in 5.0 mi SW 3.5 mph - N/A   Haze
5:05 PM 44.6 °F - 32.0 °F 61% 29.95 in 10.0 mi Calm Calm - N/A   Mostly Cloudy
5:25 PM 44.6 °F 43.1 °F 30.2 °F 57% 29.96 in 10.0 mi WNW 3.5 mph - N/A   Overcast
5:45 PM 44.6 °F - 32.0 °F 61% 29.95 in 10.0 mi Calm Calm - N/A   Overcast
6:05 PM 44.6 °F - 30.2 °F 57% 29.94 in 10.0 mi Calm Calm - N/A   Overcast
6:25 PM 44.6 °F 42.2 °F 33.8 °F 66% 29.93 in 10.0 mi South 4.6 mph - N/A   Overcast
6:45 PM 44.6 °F 43.1 °F 35.6 °F 71% 29.96 in 10.0 mi North 3.5 mph - N/A   Overcast
7:05 PM 44.6 °F - 33.8 °F 66% 29.95 in 10.0 mi Calm Calm - N/A   Overcast
7:25 PM 44.6 °F 43.1 °F 32.0 °F 61% 29.95 in 10.0 mi ESE 3.5 mph - N/A   Overcast
7:45 PM 44.6 °F 40.7 °F 32.0 °F 61% 29.94 in 10.0 mi ESE 6.9 mph - N/A   Overcast
8:05 PM 44.6 °F 41.4 °F 33.8 °F 66% 29.94 in 10.0 mi ESE 5.8 mph - N/A   Overcast
8:25 PM 44.6 °F 42.2 °F 33.8 °F 66% 29.94 in 10.0 mi East 4.6 mph - N/A   Overcast
8:45 PM 44.6 °F 42.2 °F 35.6 °F 71% 29.93 in 10.0 mi East 4.6 mph - N/A   Overcast
9:05 PM 42.8 °F 37.5 °F 35.6 °F 76% 29.92 in 10.0 mi SE 9.2 mph - N/A   Overcast
9:25 PM 42.8 °F 37.0 °F 35.6 °F 76% 29.91 in 10.0 mi SE 10.4 mph - N/A   Overcast
9:45 PM 42.8 °F 40.1 °F 32.0 °F 66% 29.93 in 10.0 mi ESE 4.6 mph - N/A   Overcast
10:25 PM 42.8 °F 38.0 °F 33.8 °F 70% 29.92 in 10.0 mi SE 8.1 mph - N/A   Overcast
11:05 PM 42.8 °F 37.5 °F 32.0 °F 66% 29.92 in 10.0 mi ESE 9.2 mph - N/A   Overcast
11:25 PM 42.8 °F 37.5 °F 32.0 °F 66% 29.91 in 10.0 mi SE 9.2 mph - N/A   Overcast
11:45 PM 42.8 °F 38.0 °F 32.0 °F 66% 29.91 in 10.0 mi SE 8.1 mph - N/A   Overcast